Weather History for Hollywood, FL

Change the Weather History Date:

Wednesday, January 9, 2013

  Actual Average (KFLL) Record (KFLL)
Temperature  
Mean Temperature 78 °F 69 °F  
Max Temperature 82 °F 76 °F 85 °F (1948)
Min Temperature 73 °F 61 °F 34 °F (1956)
Degree Days  
Heating Degree Days 0 2  
Month to date heating degree days 18  
Since 1 July heating degree days 50  
Cooling Degree Days 12 6  
Month to date cooling degree days 54  
Year to date cooling degree days 54  
Growing Degree Days 28 (Base 50)    
Moisture  
Dew Point 70 °F    
Average Humidity 77    
Maximum Humidity 87    
Minimum Humidity 62    
Precipitation  
Precipitation 0.01 in 0.08 in 1.95 in (1993)
Month to date precipitation 0.75  
Year to date precipitation 0.75  
Snow  
Snow 0.00 in - - ()
Month to date snowfall  
Since 1 July snowfall  
Snow Depth -    
Sea Level Pressure  
Sea Level Pressure 30.25 in    
Wind  
Wind Speed 12 mph (ESE)    
Max Wind Speed 22 mph    
Max Gust Speed 28 mph    
Visibility 10 miles    
Events      
T = Trace of Precipitation, MM = Missing Value Source: NWS Daily Summary

Daily Weather History Graph

Daily Weather History Graph

Search for Another Location

Airport:

Trip Planner

Search our weather history database for the weather conditions in past years. The results will help you decide how hot, cold, wet, or windy it might be!

Date:

Astronomy

Jan. 09, 2013 Rise Set
Actual Time 7:09 AM EST 5:47 PM EST
Civil Twilight 6:44 AM EST 6:12 PM EST
Nautical Twilight 6:16 AM EST 6:40 PM EST
Astronomical Twilight 5:48 AM EST 7:08 PM EST
Moon 4:47 AM EST (1/9) 3:47 PM EST (1/9)
Length of Visible Light 11h 27m
Length of Day
10h 37m
Waning Crescent, 6% of the Moon is Illuminated
Jan 9
Waning Crescent
Jan 11
New
Jan 18
First Quarter
Jan 26
Full
Feb 3
Last Quarter

Hourly Weather History & Observations

Time (EST) Temp. Heat Index Dew Point Humidity Pressure Visibility Wind Dir Wind Speed Gust Speed Precip Events Conditions
12:53 AM 75.0 °F - 71.1 °F 87% 30.18 in 10.0 mi East 5.8 mph - N/A   Overcast
1:53 AM 75.9 °F - 70.0 °F 82% 30.19 in 10.0 mi ESE 11.5 mph - N/A   Overcast
2:07 AM 75.2 °F - 69.8 °F 83% 30.19 in 10.0 mi East 9.2 mph - N/A   Overcast
2:53 AM 75.9 °F - 70.0 °F 82% 30.20 in 10.0 mi ESE 10.4 mph - N/A   Overcast
3:53 AM 75.0 °F - 69.1 °F 82% 30.20 in 10.0 mi ESE 11.5 mph - N/A   Scattered Clouds
4:53 AM 73.9 °F - 70.0 °F 87% 30.21 in 10.0 mi ESE 9.2 mph - 0.01 in   Mostly Cloudy
5:53 AM 73.9 °F - 69.1 °F 85% 30.22 in 10.0 mi ESE 9.2 mph - N/A   Partly Cloudy
6:53 AM 73.9 °F - 69.1 °F 85% 30.23 in 10.0 mi ESE 11.5 mph - N/A   Scattered Clouds
7:53 AM 75.0 °F - 69.1 °F 82% 30.25 in 10.0 mi ESE 11.5 mph - N/A   Scattered Clouds
8:53 AM 77.0 °F - 70.0 °F 79% 30.27 in 10.0 mi East 13.8 mph - N/A   Partly Cloudy
9:16 AM 78.8 °F - 69.8 °F 74% 30.28 in 10.0 mi ESE 16.1 mph 24.2 mph N/A   Mostly Cloudy
9:33 AM 78.8 °F - 69.8 °F 74% 30.29 in 10.0 mi ESE 16.1 mph - N/A   Mostly Cloudy
9:53 AM 79.0 °F - 70.0 °F 74% 30.29 in 10.0 mi ESE 19.6 mph 24.2 mph N/A   Mostly Cloudy
10:53 AM 80.1 °F 82.9 °F 69.1 °F 69% 30.28 in 10.0 mi East 17.3 mph 25.3 mph N/A   Mostly Cloudy
11:53 AM 80.1 °F 83.2 °F 70.0 °F 71% 30.26 in 10.0 mi ESE 19.6 mph 27.6 mph N/A   Overcast
12:53 PM 81.0 °F 84.4 °F 70.0 °F 69% 30.24 in 10.0 mi ESE 18.4 mph 26.5 mph N/A   Overcast
1:38 PM 80.6 °F 83.9 °F 69.8 °F 70% 30.22 in 10.0 mi ESE 13.8 mph 24.2 mph N/A   Mostly Cloudy
1:51 PM 82.4 °F 86.3 °F 69.8 °F 66% 30.22 in 10.0 mi ESE 21.9 mph 27.6 mph N/A   Mostly Cloudy
1:53 PM 81.0 °F 84.1 °F 69.1 °F 67% 30.22 in 10.0 mi ESE 18.4 mph 27.6 mph N/A   Mostly Cloudy
2:32 PM 82.4 °F 85.4 °F 68.0 °F 62% 30.22 in 10.0 mi ESE 16.1 mph - N/A   Scattered Clouds
2:50 PM 80.6 °F 83.9 °F 69.8 °F 70% 30.22 in 10.0 mi East 16.1 mph - N/A   Mostly Cloudy
2:53 PM 80.1 °F 82.9 °F 69.1 °F 69% 30.22 in 10.0 mi East 17.3 mph - N/A   Mostly Cloudy
3:53 PM 79.0 °F - 69.1 °F 72% 30.23 in 10.0 mi East 15.0 mph - N/A   Mostly Cloudy
4:53 PM 78.1 °F - 70.0 °F 76% 30.24 in 10.0 mi East 13.8 mph - N/A   Scattered Clouds
5:06 PM 77.0 °F - 69.8 °F 78% 30.24 in 10.0 mi East 15.0 mph - N/A   Mostly Cloudy
5:23 PM 77.0 °F - 69.8 °F 78% 30.25 in 10.0 mi East 12.7 mph - N/A   Scattered Clouds
5:36 PM 77.0 °F - 69.8 °F 78% 30.25 in 10.0 mi East 10.4 mph - N/A   Mostly Cloudy
5:43 PM 77.0 °F - 69.8 °F 78% 30.25 in 10.0 mi East 11.5 mph - N/A   Scattered Clouds
5:53 PM 77.0 °F - 70.0 °F 79% 30.26 in 10.0 mi East 11.5 mph - N/A   Scattered Clouds
6:53 PM 75.9 °F - 70.0 °F 82% 30.27 in 10.0 mi East 13.8 mph - N/A   Mostly Cloudy
7:32 PM 77.0 °F - 69.8 °F 78% 30.27 in 10.0 mi East 12.7 mph - N/A   Overcast
7:53 PM 77.0 °F - 70.0 °F 79% 30.27 in 10.0 mi East 10.4 mph - N/A   Overcast
8:17 PM 77.0 °F - 69.8 °F 78% 30.28 in 10.0 mi East 12.7 mph - N/A   Mostly Cloudy
8:53 PM 75.9 °F - 70.0 °F 82% 30.28 in 10.0 mi East 13.8 mph - N/A   Overcast
9:53 PM 75.9 °F - 69.1 °F 79% 30.30 in 10.0 mi East 16.1 mph - N/A   Mostly Cloudy
10:53 PM 75.9 °F - 69.1 °F 79% 30.30 in 10.0 mi East 13.8 mph - N/A   Scattered Clouds
11:53 PM 75.0 °F - 68.0 °F 79% 30.29 in 10.0 mi ESE 15.0 mph - N/A   Mostly Cloudy